Bishopton, United Kingdom

12:37 PM GMT on January 18, 2017 (GMT +0000)
Glasgow

Weather History for EGPF - September, 2011

Change the Weather History Date:

Monday, September 26, 2011

  Actual Average Record
Temperature  
Mean Temperature 52 °F -  
Max Temperature 59 °F 54 °F 64 °F (1996)
Min Temperature 46 °F 43 °F 32 °F (2010)
Degree Days  
Heating Degree Days 12    
Growing Degree Days 2 (Base 50)    
Moisture  
Dew Point 46 °F    
Average Humidity 77    
Maximum Humidity 87    
Minimum Humidity 59    
Precipitation  
Precipitation 0.00 in - - ()
Sea Level Pressure  
Sea Level Pressure 29.99 in    
Wind  
Wind Speed 9 mph ()    
Max Wind Speed 17 mph    
Max Gust Speed -    
Visibility 6.2 miles    
Events Rain    
Averages and records for this station are not official NWS values.
T = Trace of Precipitation, MM = Missing Value Source: Averaged Metar Reports

Daily Weather History Graph

Daily Weather History Graph

Search for Another Location

Airport or City:

Trip Planner

Search our weather history database for the weather conditions in past years. The results will help you decide how hot, cold, wet, or windy it might be!

Date:

Astronomy

Sep. 26, 2011 Rise Set
Actual Time 7:09 AM BST 7:07 PM BST
Civil Twilight 6:32 AM BST 7:44 PM BST
Nautical Twilight 5:49 AM BST 8:27 PM BST
Astronomical Twilight 5:03 AM BST 9:13 PM BST
Moon 5:47 AM BST (9/26) 6:11 PM BST (9/26)
Length of Visible Light 13h 11m
Length of Day
11h 57m
Waning Crescent, 2% of the Moon is Illuminated
Sep 26
Waning Crescent
Sep 27
New
Oct 4
First Quarter
Oct 12
Full
Oct 20
Last Quarter

Hourly Weather History & Observations

Time (BST) Temp. Windchill Dew Point Humidity Pressure Visibility Wind Dir Wind Speed Gust Speed Precip Events Conditions
12:20 AM 53.6 °F - 48.2 °F 82% 29.74 in 6.2 mi SW 13.8 mph - N/A   Scattered Clouds
12:50 AM 53.6 °F - 48.2 °F 82% 29.74 in 6.2 mi WSW 13.8 mph - N/A   Scattered Clouds
1:20 AM 51.8 °F - 46.4 °F 82% 29.74 in 6.2 mi West 6.9 mph - N/A   Scattered Clouds
1:50 AM 50.0 °F - 44.6 °F 82% 29.77 in 6.2 mi WSW 5.8 mph - N/A   Scattered Clouds
2:20 AM 50.0 °F - 44.6 °F 82% 29.77 in 6.2 mi West 4.6 mph - N/A   Mostly Cloudy
2:50 AM 48.2 °F - 44.6 °F 87% 29.77 in 6.2 mi Variable 3.5 mph - N/A   Partly Cloudy
3:20 AM 48.2 °F - 44.6 °F 87% 29.80 in 6.2 mi Variable 2.3 mph - N/A   Partly Cloudy
3:50 AM 46.4 °F - 42.8 °F 87% 29.80 in 6.2 mi Variable 2.3 mph - N/A   Partly Cloudy
4:20 AM 46.4 °F 43.5 °F 42.8 °F 87% 29.80 in 6.2 mi WSW 5.8 mph - N/A   Scattered Clouds
4:50 AM 50.0 °F - 44.6 °F 82% 29.83 in 6.2 mi SW 10.4 mph - N/A   Mostly Cloudy
5:20 AM 50.0 °F - 46.4 °F 87% 29.83 in 6.2 mi WSW 12.7 mph - N/A   Scattered Clouds
5:50 AM 48.2 °F - 44.6 °F 87% 29.86 in 6.2 mi SW 11.5 mph - N/A   Scattered Clouds
6:20 AM 48.2 °F - 44.6 °F 87% 29.86 in 6.2 mi SW 10.4 mph - N/A   Scattered Clouds
6:50 AM 48.2 °F - 44.6 °F 87% 29.89 in 6.2 mi SW 6.9 mph - N/A   Scattered Clouds
7:20 AM 48.2 °F - 44.6 °F 87% 29.89 in 6.2 mi SW 9.2 mph - N/A   Mostly Cloudy
7:50 AM 50.0 °F - 44.6 °F 82% 29.92 in 6.2 mi SSW 6.9 mph - N/A   Mostly Cloudy
8:20 AM 50.0 °F - 46.4 °F 87% 29.92 in 6.2 mi WSW 4.6 mph - N/A   Scattered Clouds
8:50 AM 51.8 °F - 46.4 °F 82% 29.95 in 6.2 mi SW 11.5 mph - N/A   Scattered Clouds
9:20 AM 53.6 °F - 46.4 °F 77% 29.95 in 6.2 mi SW 11.5 mph - N/A   Scattered Clouds
9:50 AM 53.6 °F - 46.4 °F 77% 29.98 in 6.2 mi WSW 11.5 mph - N/A   Scattered Clouds
10:20 AM 55.4 °F - 48.2 °F 77% 29.98 in 6.2 mi WSW 10.4 mph - N/A   Scattered Clouds
10:50 AM 57.2 °F - 48.2 °F 72% 30.01 in 6.2 mi SW 17.3 mph - N/A   Scattered Clouds
11:20 AM 55.4 °F - 46.4 °F 72% 30.01 in 6.2 mi WSW 15.0 mph - N/A   Scattered Clouds
11:50 AM 57.2 °F - 46.4 °F 67% 30.04 in 6.2 mi WSW 15.0 mph - N/A   Scattered Clouds
12:20 PM 59.0 °F - 44.6 °F 59% 30.04 in 6.2 mi WSW 12.7 mph - N/A   Scattered Clouds
12:50 PM 57.2 °F - 48.2 °F 72% 30.04 in 6.2 mi SW 13.8 mph - N/A   Scattered Clouds
1:20 PM 57.2 °F - 48.2 °F 72% 30.06 in 6.2 mi SW 13.8 mph - N/A   Scattered Clouds
1:50 PM 57.2 °F - 46.4 °F 67% 30.06 in 6.2 mi SW 12.7 mph - N/A   Scattered Clouds
2:20 PM 57.2 °F - 46.4 °F 67% 30.06 in 6.2 mi SW 12.7 mph - N/A   Scattered Clouds
2:50 PM 57.2 °F - 48.2 °F 72% 30.09 in 6.2 mi SSW 13.8 mph - N/A   Partly Cloudy
3:20 PM 57.2 °F - 46.4 °F 67% 30.09 in 6.2 mi SSW 15.0 mph - N/A   Partly Cloudy
3:50 PM 59.0 °F - 44.6 °F 59% 30.09 in 6.2 mi SSW 15.0 mph - N/A   Partly Cloudy
4:20 PM 57.2 °F - 46.4 °F 67% 30.09 in 6.2 mi SW 13.8 mph - N/A   Partly Cloudy
4:50 PM 57.2 °F - 46.4 °F 67% 30.09 in 6.2 mi SW 12.7 mph - N/A   Partly Cloudy
5:20 PM 57.2 °F - 46.4 °F 67% 30.12 in 6.2 mi SW 10.4 mph - N/A   Partly Cloudy
5:50 PM 55.4 °F - 46.4 °F 72% 30.12 in 6.2 mi WSW 6.9 mph - N/A   Partly Cloudy
6:20 PM 55.4 °F - 48.2 °F 77% 30.12 in 6.2 mi SSW 5.8 mph - N/A   Partly Cloudy
6:50 PM 55.4 °F - 48.2 °F 77% 30.12 in 6.2 mi SSW 6.9 mph - N/A Rain Light Rain
7:20 PM 55.4 °F - 48.2 °F 77% 30.12 in 6.2 mi South 6.9 mph - N/A   Partly Cloudy
7:50 PM 55.4 °F - 48.2 °F 77% 30.15 in 6.2 mi South 10.4 mph - N/A   Partly Cloudy
8:20 PM 53.6 °F - 46.4 °F 77% 30.15 in 6.2 mi South 9.2 mph - N/A   Partly Cloudy
8:50 PM 53.6 °F - 46.4 °F 77% 30.15 in - South 4.6 mph - N/A   Clear
9:20 PM 51.8 °F - 46.4 °F 82% 30.15 in - Calm Calm - N/A   Clear
9:50 PM 53.6 °F - 44.6 °F 72% 30.15 in - South 5.8 mph - N/A   Clear
10:20 PM 53.6 °F - 46.4 °F 77% 30.15 in 6.2 mi SSE 4.6 mph - N/A   Partly Cloudy
10:50 PM 53.6 °F - 46.4 °F 77% 30.15 in 6.2 mi Calm Calm - N/A   Mostly Cloudy
11:20 PM 53.6 °F - 46.4 °F 77% 30.15 in 6.2 mi ESE 2.3 mph - N/A   Overcast
11:50 PM 53.6 °F - 48.2 °F 82% 30.15 in 6.2 mi Variable 3.5 mph - N/A   Mostly Cloudy